Live-Position
3D-Globus wird geladen...
Über Starlink 4345
Group: 3 satellites
Beschreibung wird geladen...
Nächste Überflüge
Passes for default location (London). Set your location on the main map for personalized predictions.
Höhenverlauf
Loading altitude history...
No altitude history available
Zweizeiliger Elementsatz
1 53049U 22077G 26124.71325566 -.00004390 00000-0 -30012-3 0 9996
2 53049 97.5330 305.2246 0002515 81.1915 278.9597 15.05670456209333
Epoch: 4. Mai 2026 •
Age: 8 hours
Aktueller Status
Höhe 571.5 km
Geschwindigkeit 7.57 km/s
Subsatellitenpunkt -53.59°S,
80.1°E
Startdatum 11. Juli 2022
Alter 3.8 years
Typ internet
Startgruppe
Falcon 9 •
Group 3-1 •
42 satellites
Starlink 4362
53043
Starlink 4350 53045
Starlink 4331 53046
Starlink 4352 53047
Starlink 4355 53048
Starlink 4343 53050
Starlink 4336 53051
Starlink 4341 53052
Starlink 4337 53053
Starlink 4339 53054
Starlink 4338 53055
Starlink 4314 53056
Starlink 4252 53057
Starlink 4317 53058
Starlink 4320 53059
Starlink 4305 53060
Starlink 4308 53061
Starlink 4311 53062
Starlink 4307 53063
Starlink 4313 53064
...and 21 more
Technische Details
Klassifizierung Payload
Masse 297.00 kg
Trockenmasse 275.00 kg
Gesamtmasse 297.00 kg
Länge 0.20 m
Durchmesser 2.80 m
Spannweite 9.00 m
Form Box + pan
Hersteller SPXS
Bus-Typ Starlink
Phasenstatus In Orbit
Besitzer/Staat SPXS/US
Most Searched
Loading...